Flag for Kazakhstan Weather past 2 weeks in Shymkent, Kazakhstan

Now
75 °F

Clear.


Feels Like: 77 °F
Forecast: 78 / 103 °F
Wind: 1 mph from Southeast

Location: Shymkent Airport

Current Time: Aug 4, 2015 at 3:35:58 AM

Latest Report: Aug 4, 2015 at 3:00 AM


Visibility: 10 mi

Pressure: 29.68 "Hg (28.00 "Hg at 506m altitude)

Humidity: 39%

Dew point: 48 °F

Location of ShymkentLocation

Historic Weather in Shymkent — Graph

°F

Shymkent temperature yesterday

Maximum temperature yesterday: 106 °F (at 3:00 PM)
Minimum temperature yesterday: 72 °F (at 3:30 AM)
Average temperature yesterday: 90 °F

Past Weeks' High & Low Weather Summary

 TemperatureHumidityPressure
High106 °F (Aug 3, 3:00 PM)83% (Jul 22, 6:00 AM)29.92 "Hg (Jul 22, 6:00 AM)
Low63 °F (Jul 30, 4:30 AM)9% (Jul 25, 5:00 PM)29.59 "Hg (Jul 20, 2:00 PM)
Average86 °F25%29.73 "Hg
* Reported Jul 20 2:00 AM — Aug 4 2:00 AM, Shymkent, Weather by CustomWeather, © 2015

Note: Actual official high and low records may vary slightly from our data, if they occured in-between our weather recording intervals... More about our weather records

Advertising

Shymkent weather history for previous 24 hours

 ConditionsComfort  
Time TempWeatherWind HumidityBarometerVisibility
2:00 AM
Tue, Aug 4
77 °FClear.No wind34%29.71 "Hg10 mi
1:30 AM77 °FClear.1 mph34%29.71 "Hg10 mi
1:00 AM77 °FClear.1 mph34%29.71 "Hg10 mi
12:30 AM81 °FClear.1 mph28%29.71 "Hg10 mi
12:00 AM82 °FClear.3 mph26%29.71 "Hg10 mi
11:30 PM
Mon, Aug 3
79 °FClear.1 mph32%29.71 "Hg10 mi
11:00 PM86 °FPassing clouds.3 mph22%29.71 "HgN/A
10:30 PM88 °FClear.3 mph21%29.71 "Hg10 mi
10:00 PM90 °FPassing clouds.3 mph20%29.71 "HgN/A
9:30 PM91 °FPassing clouds.3 mph17%29.71 "HgN/A
9:00 PM93 °FClear.3 mph16%29.71 "Hg10 mi
8:30 PM97 °FPassing clouds.3 mph13%29.71 "HgN/A
8:00 PM99 °FSunny.15 mph13%29.71 "Hg10 mi
7:30 PM100 °FSunny.15 mph12%29.71 "Hg10 mi
7:00 PM102 °FSunny.6 mph11%29.68 "Hg10 mi
6:30 PM102 °FSunny.6 mph12%29.68 "Hg10 mi
6:00 PM104 °FSunny.6 mph11%29.68 "Hg10 mi
5:30 PM104 °FSunny.8 mph12%29.68 "Hg10 mi
5:00 PM104 °FSunny.8 mph11%29.68 "Hg10 mi
4:30 PM104 °FSunny.6 mph11%29.68 "Hg10 mi
4:00 PM106 °FSunny.3 mph10%29.68 "Hg10 mi
3:30 PM106 °FSunny.6 mph11%29.68 "Hg10 mi
3:00 PM106 °FSunny.3 mph12%29.68 "Hg10 mi
2:30 PM104 °FPassing clouds.6 mph12%29.71 "HgN/A
2:00 PM104 °FPassing clouds.3 mph12%29.71 "HgN/A
1:30 PM104 °FSunny.1 mph12%29.71 "Hg10 mi
1:00 PM102 °FPassing clouds.3 mph13%29.71 "HgN/A
12:30 PM102 °FPassing clouds.6 mph12%29.71 "HgN/A
12:00 PM100 °FPassing clouds.3 mph14%29.71 "HgN/A
11:30 AM100 °FPassing clouds.3 mph16%29.71 "HgN/A
11:00 AM100 °FSunny.1 mph14%29.71 "Hg10 mi
9:30 AM93 °FSunny.6 mph24%29.71 "Hg10 mi
9:00 AM90 °FSunny.8 mph27%29.74 "Hg10 mi
8:30 AM86 °FSunny.6 mph31%29.74 "Hg10 mi
8:00 AM82 °FSunny.8 mph32%29.74 "Hg10 mi
7:30 AM79 °FSunny.8 mph37%29.71 "Hg10 mi
7:00 AM77 °FSunny.6 mph36%29.71 "Hg10 mi
6:30 AM75 °FSunny.6 mph39%29.71 "Hg10 mi
6:00 AM75 °FClear.6 mph39%29.71 "Hg10 mi
5:30 AM77 °FClear.3 mph34%29.71 "Hg10 mi
5:00 AM77 °FClear.3 mph32%29.71 "Hg10 mi
4:30 AM75 °FClear.1 mph36%29.71 "Hg10 mi
4:00 AM73 °FClear.3 mph36%29.71 "Hg10 mi
3:30 AM72 °FClear.3 mph38%29.71 "Hg10 mi
3:00 AM73 °FClear.1 mph33%29.71 "Hg10 mi
Weather by CustomWeather, © 2015

See weather overviewHow to use our weather pages